FW8483 Weather Reports


Display with metric or nautical units.
time (UTC)temp
F
wind
direction
speed
MPH
gust
MPH
rain 1hr
in
rain 24hr
in
rain mn
in
humidity
%
barometer
mb
20260901063505 75 90 0.0 0.0 0.00 0.00 0.00 96 1017.1
20260901063021 75 90 0.0 0.0 0.00 0.00 0.00 96 1017.1
20260901062507 75 90 0.0 0.0 0.00 0.00 0.00 96 1017.2
20260901062011 75 90 0.0 0.0 0.00 0.00 0.00 96 1017.2
20260901061614 75 90 0.0 0.0 0.00 0.00 0.00 96 1017.2
20260901061013 75 90 0.0 0.0 0.00 0.00 0.00 96 1017.4
20260901060515 75 90 0.0 0.0 0.00 0.00 0.00 96 1017.5
20260901060035 75 90 0.0 0.0 0.00 0.00 0.00 96 1017.5
20260901055514 76 90 0.0 0.0 0.00 0.00 0.00 96 1017.6
20260901055016 76 90 0.0 0.0 0.00 0.00 0.00 96 1017.6
20260901054534 76 90 0.0 0.0 0.00 0.00 0.00 96 1017.6
20260901054016 76 90 0.0 0.0 0.00 0.00 0.00 95 1017.6
20260901053518 76 90 0.0 0.0 0.00 0.00 0.00 96 1017.5
20260901053021 76 90 0.0 0.0 0.00 0.00 0.00 96 1017.5
20260901052509 76 90 0.0 0.0 0.00 0.00 0.00 96 1017.6
20260901052012 76 90 0.0 0.0 0.00 0.00 0.00 96 1017.6
20260901051523 76 91 0.0 0.0 0.00 0.00 0.00 95 1017.7
20260901051012 76 90 0.0 0.0 0.00 0.00 0.00 96 1017.8
20260901050514 76 91 0.0 0.0 0.00 0.00 0.00 96 1017.8
20260901050028 76 91 0.0 0.0 0.00 0.00 0.00 96 1017.8
20260901045515 76 90 0.0 0.0 0.00 0.00 0.00 95 1017.7
20260901045013 76 91 0.0 0.0 0.00 0.00 0.00 95 1017.8
20260901044535 76 91 0.0 0.0 0.00 0.00 0.00 95 1017.7
20260901044015 76 90 0.0 0.0 0.00 0.00 0.00 95 1017.7
20260901043517 76 90 0.0 0.0 0.00 0.00 0.00 95 1017.7
20260901043034 76 90 0.0 0.0 0.00 0.00 0.00 94 1017.8
20260901042518 77 90 0.0 0.0 0.00 0.00 0.00 94 1017.7
20260901042010 77 237 0.0 0.0 0.00 0.00 0.00 95 1017.8
20260901041526 77 237 0.0 0.0 0.00 0.00 0.00 95 1017.7
20260901041010 77 237 0.0 0.0 0.00 0.00 0.00 95 1017.8
20260901040513 77 237 0.0 0.0 0.00 0.00 0.00 94 1017.8
20260901040035 77 236 0.0 0.0 0.00 0.00 0.00 94 1017.8
20260901035518 77 237 0.0 0.0 0.00 0.00 0.00 95 1017.8
20260901035013 77 237 0.0 0.0 0.00 0.00 0.00 94 1017.8
20260901034535 77 237 0.0 0.0 0.00 0.00 0.00 94 1017.8
20260901034014 77 237 0.0 0.0 0.00 0.00 0.00 94 1017.8
20260901033518 77 236 0.0 0.0 0.00 0.00 0.00 94 1017.8
20260901033033 77 236 0.0 0.0 0.00 0.00 0.00 93 1017.8
20260901032514 77 237 0.0 0.0 0.00 0.00 0.00 93 1017.9
20260901032016 77 237 0.0 0.0 0.00 0.00 0.00 93 1017.9
20260901031536 78 237 0.0 0.0 0.00 0.00 0.00 93 1017.9
20260901031009 78 237 0.0 0.0 0.00 0.00 0.00 93 1017.9
20260901030511 78 237 0.0 0.0 0.00 0.00 0.00 93 1018.0
20260901030030 78 175 0.0 0.0 0.00 0.00 0.00 93 1018.0
20260901025514 78 175 0.0 0.0 0.00 0.00 0.00 93 1018.0
20260901025014 78 175 0.0 0.0 0.00 0.00 0.00 92 1018.0
20260901024529 78 175 0.0 0.0 0.00 0.00 0.00 92 1018.0
20260901024016 78 175 0.0 0.0 0.00 0.00 0.00 92 1018.1
20260901023517 78 175 0.0 0.0 0.00 0.00 0.00 92 1018.0
20260901023038 78 175 0.0 0.0 0.00 0.00 0.00 92 1017.9
20260901022514 78 244 0.0 0.0 0.00 0.00 0.00 92 1017.9
20260901022022 78 244 0.0 0.0 0.00 0.00 0.00 92 1017.9
20260901021535 78 244 0.0 0.0 0.00 0.00 0.00 92 1017.9
20260901021003 78 88 0.0 0.0 0.00 0.00 0.00 91 1017.8
20260901020502 79 168 0.0 0.0 0.00 0.00 0.00 90 1017.6
20260901020006 79 168 0.0 0.0 0.00 0.00 0.00 90 1017.6
20260901015502 79 200 0.0 0.0 0.00 0.00 0.00 90 1017.5
20260901015002 79 200 0.0 0.0 0.00 0.00 0.00 90 1017.3
20260901014503 79 114 0.0 0.0 0.00 0.00 0.00 90 1017.3
20260901014003 79 114 0.0 0.0 0.00 0.00 0.00 90 1017.3
20260901013503 79 114 0.0 0.0 0.00 0.00 0.00 89 1017.2
20260901013005 79 114 0.0 0.0 0.00 0.00 0.00 88 1017.1
20260901012502 80 114 0.0 0.0 0.00 0.00 0.00 88 1017.1
20260901012002 80 114 0.0 0.0 0.00 0.00 0.00 88 1017.0
20260901011505 80 114 0.0 0.0 0.00 0.00 0.00 87 1016.8
20260901011002 80 114 0.0 0.0 0.00 0.00 0.00 87 1016.8
20260901010502 80 114 0.0 0.0 0.00 0.00 0.00 86 1016.8
20260901010008 81 114 0.0 0.0 0.00 0.00 0.00 85 1016.8
20260901005504 81 114 0.0 0.0 0.00 0.00 0.00 83 1016.7
20260901005002 81 114 0.0 0.0 0.00 0.00 0.00 84 1016.6
20260901004506 82 114 0.0 0.0 0.00 0.00 0.00 82 1016.6
20260901004003 82 114 0.0 0.0 0.00 0.00 0.00 82 1016.6
20260901003503 82 114 0.0 0.0 0.00 0.00 0.00 81 1016.5
20260901003006 82 114 0.0 0.0 0.00 0.00 0.00 81 1016.4
20260901002503 82 114 0.0 0.0 0.00 0.00 0.00 80 1016.3
20260901002005 83 114 0.0 0.0 0.00 0.00 0.00 80 1016.2
20260901001513 83 114 0.0 0.0 0.00 0.00 0.00 78 1016.2
20260901001002 84 114 0.0 0.0 0.00 0.00 0.00 78 1016.2
20260901000502 84 114 0.0 0.0 0.00 0.00 0.00 78 1016.2
20260901000013 85 5 0.0 0.0 0.00 0.00 0.00 78 1016.3
20260831235503 85 40 0.0 0.0 0.00 0.00 0.00 76 1016.3
20260831235004 86 40 0.0 0.0 0.00 0.00 0.00 76 1016.2
20260831234505 86 40 0.0 0.0 0.00 0.00 0.00 74 1016.2
20260831234004 87 221 0.0 0.0 0.00 0.00 0.00 74 1016.2
20260831233502 87 221 0.0 0.0 0.00 0.00 0.00 73 1016.2
20260831233005 87 221 0.0 0.0 0.00 0.00 0.00 73 1016.2
20260831232505 88 222 0.0 0.0 0.00 0.00 0.00 73 1016.3
20260831232002 88 97 0.0 0.0 0.00 0.00 0.00 74 1016.3
20260831231507 88 97 0.0 0.0 0.00 0.00 0.00 72 1016.3
20260831231003 88 97 0.0 0.0 0.00 0.00 0.00 71 1016.3
20260831230503 88 97 0.0 2.0 0.00 0.00 0.00 70 1016.4
20260831230012 88 98 0.0 7.0 0.00 0.00 0.00 68 1016.3
20260831225502 89 90 2.0 7.0 0.00 0.00 0.00 67 1016.4
20260831225003 89 71 2.0 7.0 0.00 0.00 0.00 65 1016.4
20260831224507 89 82 5.0 7.0 0.00 0.00 0.00 65 1016.3
20260831224004 89 71 4.0 7.0 0.00 0.00 0.00 65 1016.3
20260831223504 89 64 4.0 7.0 0.00 0.00 0.00 64 1016.5
20260831223016 89 77 3.0 9.0 0.00 0.00 0.00 64 1016.5
20260831222507 89 84 4.0 9.0 0.00 0.00 0.00 63 1016.5
20260831222003 90 72 3.0 9.0 0.00 0.00 0.00 63 1016.5
20260831221521 90 78 3.0 9.0 0.00 0.00 0.00 65 1016.5
20260831221004 90 69 1.0 9.0 0.00 0.00 0.00 66 1016.6
20260831220503 90 59 3.0 9.0 0.00 0.00 0.00 64 1016.5
20260831220010 90 40 4.0 7.0 0.00 0.00 0.00 63 1016.5
20260831215506 90 26 2.0 8.0 0.00 0.00 0.00 65 1016.4
20260831215003 89 81 2.0 8.0 0.00 0.00 0.00 63 1016.4
20260831214506 89 27 2.0 9.0 0.00 0.00 0.00 63 1016.4
20260831214003 90 84 5.0 11.0 0.00 0.00 0.00 62 1016.4
20260831213505 90 83 7.0 11.0 0.00 0.00 0.00 63 1016.5
20260831213008 90 74 3.0 7.0 0.00 0.00 0.00 64 1016.4
20260831212504 90 40 1.0 4.0 0.00 0.00 0.00 62 1016.4
20260831212003 89 76 2.0 4.0 0.00 0.00 0.00 64 1016.5
20260831211507 89 23 1.0 3.0 0.00 0.00 0.00 64 1016.5
20260831211004 89 65 1.0 6.0 0.00 0.00 0.00 63 1016.6
20260831210505 90 42 1.0 13.0 0.00 0.00 0.00 60 1016.7
20260831210008 91 30 4.0 13.0 0.00 0.00 0.00 59 1016.6
20260831205504 91 85 8.0 13.0 0.00 0.00 0.00 63 1016.6
20260831205004 91 98 2.0 7.0 0.00 0.00 0.00 62 1016.6
20260831204509 91 127 4.0 9.0 0.00 0.00 0.00 60 1016.6
20260831204005 91 46 5.0 10.0 0.00 0.00 0.00 59 1016.7
20260831203504 90 80 7.0 10.0 0.00 0.00 0.00 61 1016.7
20260831203009 90 83 4.0 8.0 0.00 0.00 0.00 65 1016.7
20260831202504 90 89 4.0 10.0 0.00 0.00 0.00 63 1016.8
20260831202007 90 106 5.0 9.0 0.00 0.00 0.00 64 1016.8
20260831201512 90 62 4.0 11.0 0.00 0.00 0.00 64 1016.8
20260831201002 90 30 6.0 11.0 0.00 0.00 0.00 67 1016.8
20260831200502 89 56 0.0 6.0 0.00 0.00 0.00 65 1016.8
20260831200009 88 100 2.0 9.0 0.00 0.00 0.00 68 1016.9
20260831195506 89 90 4.0 9.0 0.00 0.00 0.00 66 1016.9
20260831195005 90 98 4.0 9.0 0.00 0.00 0.00 66 1017.0
20260831194522 90 74 3.0 7.0 0.00 0.00 0.00 65 1017.0
20260831194005 90 96 3.0 9.0 0.00 0.00 0.00 66 1017.1
20260831193505 90 89 4.0 9.0 0.00 0.00 0.00 64 1017.1
20260831193010 89 40 4.0 8.0 0.00 0.00 0.00 66 1017.1
20260831192502 89 51 4.0 9.0 0.00 0.00 0.00 67 1017.2
20260831192003 89 96 4.0 9.0 0.00 0.00 0.00 66 1017.3
20260831191512 89 101 4.0 8.0 0.00 0.00 0.00 67 1017.2
20260831191005 89 96 3.0 8.0 0.00 0.00 0.00 70 1017.2
20260831190505 89 84 5.0 10.0 0.00 0.00 0.00 67 1017.2
20260831190012 89 94 4.0 10.0 0.00 0.00 0.00 66 1017.3
20260831185505 90 80 4.0 10.0 0.00 0.00 0.00 65 1017.4
20260831185006 90 70 6.0 11.0 0.00 0.00 0.00 70 1017.4
20260831184514 90 88 5.0 11.0 0.00 0.00 0.00 66 1017.4
20260831184003 89 72 3.0 11.0 0.00 0.00 0.00 70 1017.5
20260831183503 89 76 5.0 11.0 0.00 0.00 0.00 66 1017.6
20260831183012 89 136 5.0 10.0 0.00 0.00 0.00 67 1017.7
20260831182506 89 103 6.0 10.0 0.00 0.00 0.00 68 1017.8
20260831182007 89 111 5.0 9.0 0.00 0.00 0.00 67 1017.8
20260831181515 89 101 6.0 9.0 0.00 0.00 0.00 65 1017.9
20260831181007 89 88 5.0 9.0 0.00 0.00 0.00 68 1017.9
20260831180507 88 84 5.0 9.0 0.00 0.00 0.00 68 1017.9
20260831180012 89 63 6.0 11.0 0.00 0.00 0.00 66 1018.0
20260831175507 88 45 3.0 11.0 0.00 0.00 0.00 66 1018.0
20260831175003 88 96 7.0 10.0 0.00 0.00 0.00 68 1018.0
20260831174513 88 51 6.0 9.0 0.00 0.00 0.00 71 1018.1
20260831174008 88 104 4.0 9.0 0.00 0.00 0.00 67 1018.1
20260831173507 88 60 4.0 11.0 0.00 0.00 0.00 69 1018.1
20260831173016 88 33 7.0 10.0 0.00 0.00 0.00 69 1018.2
20260831172508 88 97 4.0 8.0 0.00 0.00 0.00 72 1018.3
20260831172009 87 99 4.0 8.0 0.00 0.00 0.00 69 1018.3
20260831171522 87 28 4.0 8.0 0.00 0.00 0.00 72 1018.4
20260831171003 87 74 5.0 8.0 0.00 0.00 0.00 71 1018.5
20260831170506 87 85 5.0 12.0 0.00 0.00 0.00 73 1018.5
20260831170003 87 87 4.0 12.0 0.00 0.00 0.00 70 1018.7
20260831165501 87 85 5.0 8.0 0.00 0.00 0.00 72 1018.7
20260831165002 87 96 0.0 8.0 0.00 0.00 0.00 73 1018.7
20260831164503 87 72 5.0 8.0 0.00 0.00 0.00 71 1018.7
20260831164003 87 57 3.0 9.0 0.00 0.00 0.00 75 1018.7
20260831163503 87 94 5.0 10.0 0.00 0.00 0.00 74 1018.7
20260831163008 86 59 5.0 10.0 0.00 0.00 0.00 71 1018.6
20260831162504 86 90 3.0 10.0 0.00 0.00 0.00 76 1018.8
20260831162004 85 71 2.0 10.0 0.00 0.00 0.00 77 1018.7
20260831161505 85 30 6.0 11.0 0.00 0.00 0.00 75 1018.7
20260831161003 85 26 5.0 11.0 0.00 0.00 0.00 78 1018.9
20260831160503 86 58 5.0 9.0 0.00 0.00 0.00 76 1019.1
20260831160010 85 65 4.0 9.0 0.00 0.00 0.00 78 1019.2
20260831155504 85 9 3.0 9.0 0.00 0.00 0.00 78 1019.2
20260831155002 85 98 4.0 10.0 0.00 0.00 0.00 79 1019.4
20260831154519 85 107 6.0 10.0 0.00 0.00 0.00 79 1019.4
20260831154003 85 94 3.0 8.0 0.00 0.00 0.00 80 1019.4
20260831153502 84 83 3.0 9.0 0.00 0.00 0.00 80 1019.5
20260831153009 84 94 3.0 9.0 0.00 0.00 0.00 81 1019.5
20260831152503 84 82 7.0 9.0 0.00 0.00 0.00 80 1019.5
20260831152006 84 352 3.0 8.0 0.00 0.00 0.00 82 1019.5
20260831151510 84 82 6.0 8.0 0.00 0.00 0.00 80 1019.5
20260831151005 83 58 5.0 8.0 0.00 0.00 0.00 83 1019.5
20260831150504 83 59 5.0 10.0 0.00 0.00 0.00 81 1019.4
20260831150010 83 74 6.0 10.0 0.00 0.00 0.00 82 1019.5
20260831145503 83 70 6.0 10.0 0.00 0.00 0.00 83 1019.5
20260831145003 82 107 3.0 8.0 0.00 0.00 0.00 84 1019.4
20260831144521 82 71 5.0 8.0 0.00 0.00 0.00 84 1019.4
20260831144005 82 38 4.0 9.0 0.00 0.00 0.00 85 1019.3
20260831143504 81 86 6.0 9.0 0.00 0.00 0.00 85 1019.4
20260831143008 81 90 5.0 7.0 0.00 0.00 0.00 86 1019.5
20260831142502 80 69 4.0 8.0 0.00 0.00 0.00 87 1019.6
20260831142004 80 85 5.0 8.0 0.00 0.00 0.00 88 1019.6
20260831141512 80 95 3.0 8.0 0.00 0.00 0.00 89 1019.5
20260831141005 79 67 4.0 8.0 0.00 0.00 0.00 88 1019.4
20260831140505 79 56 3.0 8.0 0.00 0.00 0.00 90 1019.4
20260831140008 78 74 4.0 8.0 0.00 0.00 0.00 90 1019.4
20260831135503 78 74 5.0 8.0 0.00 0.00 0.00 90 1019.4
20260831135004 78 98 3.0 6.0 0.00 0.00 0.00 93 1019.3
20260831134510 78 76 3.0 6.0 0.00 0.00 0.00 92 1019.3
20260831134004 77 83 3.0 6.0 0.00 0.00 0.00 92 1019.4
20260831133507 77 94 5.0 6.0 0.00 0.00 0.00 92 1019.2
20260831133009 77 46 2.0 5.0 0.00 0.00 0.00 93 1019.2
20260831132506 76 70 3.0 6.0 0.00 0.00 0.00 93 1019.2
20260831132006 76 28 3.0 8.0 0.00 0.00 0.00 93 1019.0
20260831131510 76 43 2.0 8.0 0.00 0.00 0.00 94 1018.8
20260831131006 76 76 4.0 7.0 0.00 0.00 0.00 94 1018.7
20260831130503 75 70 3.0 7.0 0.00 0.00 0.00 94 1018.8
20260831130009 75 39 3.0 7.0 0.00 0.00 0.00 94 1018.8
20260831125506 75 28 2.0 6.0 0.00 0.00 0.00 94 1018.8
20260831125005 75 61 4.0 6.0 0.00 0.00 0.00 94 1018.8
20260831124510 75 57 2.0 8.0 0.00 0.00 0.00 95 1018.8
20260831124003 74 57 3.0 8.0 0.00 0.00 0.00 95 1018.7
20260831123504 74 42 3.0 8.0 0.00 0.00 0.00 95 1018.6
20260831123009 74 27 3.0 6.0 0.00 0.00 0.00 95 1018.5
20260831122505 74 19 3.0 6.0 0.00 0.00 0.00 96 1018.6
20260831122006 74 55 3.0 6.0 0.00 0.00 0.00 96 1018.6
20260831121517 74 45 2.0 5.0 0.00 0.00 0.00 96 1018.5
20260831121007 74 46 1.0 5.0 0.00 0.00 0.00 96 1018.6
20260831120506 74 27 2.0 4.0 0.00 0.00 0.00 96 1018.5
20260831120021 73 47 1.0 4.0 0.00 0.00 0.00 96 1018.5
20260831115504 73 40 2.0 4.0 0.00 0.00 0.00 96 1018.4
20260831115006 73 59 2.0 4.0 0.00 0.00 0.00 96 1018.3
20260831114513 73 22 2.0 4.0 0.00 0.00 0.00 96 1018.2
20260831114007 73 352 2.0 4.0 0.00 0.00 0.00 96 1018.3
20260831113507 73 45 2.0 4.0 0.00 0.00 0.00 96 1018.2
20260831113013 73 21 1.0 4.0 0.00 0.01 0.00 96 1018.1
20260831112506 73 26 1.0 4.0 0.00 0.01 0.00 96 1018.0
20260831112002 73 17 2.0 4.0 0.00 0.01 0.00 96 1018.0
20260831111526 73 23 1.0 4.0 0.00 0.01 0.00 96 1017.9
20260831111010 73 32 1.0 4.0 0.00 0.01 0.00 96 1017.8
20260831110507 73 12 2.0 4.0 0.00 0.01 0.00 96 1017.7
20260831110014 73 76 2.0 4.0 0.00 0.01 0.00 96 1017.6
20260831105505 73 59 0.0 3.0 0.00 0.01 0.00 96 1017.4
20260831105008 73 65 0.0 0.0 0.00 0.01 0.00 96 1017.3
20260831104528 73 68 0.0 0.0 0.00 0.01 0.00 96 1017.2
20260831104007 73 62 0.0 0.0 0.00 0.01 0.00 96 1017.2
20260831103508 73 59 0.0 0.0 0.00 0.01 0.00 96 1017.2
20260831103037 73 59 0.0 0.0 0.00 0.01 0.00 96 1017.3
20260831102507 73 59 0.0 0.0 0.00 0.01 0.00 96 1017.3
20260831102007 73 59 0.0 0.0 0.00 0.01 0.00 96 1017.3
20260831101517 73 71 0.0 2.0 0.00 0.01 0.00 96 1017.3
20260831101007 73 66 0.0 4.0 0.00 0.01 0.00 96 1017.2
20260831100506 73 76 2.0 4.0 0.00 0.01 0.00 96 1017.2
20260831100024 73 53 0.0 3.0 0.00 0.01 0.00 96 1017.2
20260831095506 73 60 1.0 3.0 0.00 0.01 0.00 96 1017.2
20260831095010 73 57 2.0 3.0 0.00 0.01 0.00 96 1017.3
20260831094528 73 49 0.0 3.0 0.00 0.01 0.00 96 1017.2
20260831094008 73 61 0.0 3.0 0.00 0.01 0.00 95 1017.2
20260831093508 74 83 2.0 3.0 0.00 0.01 0.00 96 1017.2
20260831093016 74 65 0.0 2.0 0.00 0.01 0.00 95 1017.2
20260831092507 74 66 0.0 0.0 0.00 0.01 0.00 96 1017.2
20260831092008 74 66 0.0 0.0 0.00 0.01 0.00 96 1017.1
20260831091516 74 25 0.0 0.0 0.00 0.01 0.00 96 1017.1
20260831091007 74 28 0.0 0.0 0.00 0.01 0.00 96 1017.2
20260831090510 74 62 0.0 0.0 0.00 0.01 0.00 96 1017.2
20260831090018 74 45 0.0 0.0 0.00 0.01 0.00 96 1017.2
20260831085508 74 48 0.0 0.0 0.00 0.01 0.00 95 1017.2
20260831085008 74 61 0.0 0.0 0.00 0.02 0.00 95 1017.1
20260831084520 74 80 0.0 0.0 0.00 0.02 0.00 95 1017.2
20260831084009 74 31 0.0 0.0 0.00 0.02 0.00 95 1017.2
20260831083509 74 31 0.0 0.0 0.00 0.02 0.00 95 1017.1
20260831083025 74 31 0.0 0.0 0.00 0.02 0.00 95 1017.2
20260831082508 74 31 0.0 0.0 0.00 0.02 0.00 95 1017.1
20260831082006 74 31 0.0 0.0 0.00 0.02 0.00 95 1017.1
20260831081519 74 31 0.0 0.0 0.00 0.02 0.00 95 1017.2
20260831081014 74 31 0.0 0.0 0.00 0.02 0.00 95 1017.2
20260831080512 74 352 0.0 0.0 0.00 0.02 0.00 95 1017.1
20260831080040 74 352 0.0 0.0 0.00 0.02 0.00 95 1017.1
20260831075507 74 5 0.0 0.0 0.00 0.02 0.00 95 1017.1
20260831075009 74 30 0.0 0.0 0.00 0.02 0.00 95 1017.1
20260831074524 74 30 0.0 0.0 0.00 0.02 0.00 95 1017.1
20260831074008 74 30 0.0 0.0 0.00 0.02 0.00 95 1017.2
20260831073511 74 30 0.0 0.0 0.00 0.02 0.00 95 1017.2
20260831073030 74 30 0.0 0.0 0.00 0.02 0.00 95 1017.3
20260831072510 74 30 0.0 0.0 0.00 0.02 0.00 95 1017.2
20260831072011 74 30 0.0 0.0 0.00 0.02 0.00 95 1017.1
20260831071520 74 30 0.0 0.0 0.00 0.02 0.00 95 1017.1
20260831071013 74 30 0.0 0.0 0.00 0.02 0.00 95 1017.1
20260831070511 74 30 0.0 0.0 0.00 0.03 0.00 95 1017.1
20260831070021 74 30 0.0 0.0 0.00 0.03 0.00 95 1017.2
20260831065512 74 30 0.0 0.0 0.00 0.03 0.00 95 1017.2
20260831065011 75 30 0.0 0.0 0.00 0.03 0.00 94 1017.2
20260831064521 75 30 0.0 0.0 0.00 0.03 0.00 94 1017.3
20260831064009 75 30 0.0 0.0 0.00 0.03 0.00 94 1017.4